Location: Austin
(30.3000°N, 97.7500°W)
Time: 02:01:37
(UTC-05:00)

SL-08 R/B - Pass Details

Date: 15 April 2025
Orbit: 668 x 730 km, 98.5° (Epoch: 29 April)

Event Time Altitude Azimuth Distance (km) Brightness Sun altitude
Rises 21:16:34 0° 6° (N) 3,114 6.9 -16.8°
Reaches altitude 10° 21:18:51 10° 3° (N) 2,200 6.1 -17.3°
Maximum altitude 21:23:34 56° 285° (WNW) 857 4.1 -18.2°
Drops below altitude 10° 21:28:19 10° 208° (SSW) 2,214 5.9 -19.1°
Sets 21:30:38 0° 204° (SSW) 3,135 6.7 -19.6°
